Regional Weather Roundup
Issued by NWS

Home | Current Version | Previous Version | Graphics & Text | Print | Product List | Glossary On
Versions: 1 2 3 4 5 6 7 8 9 10 11 12 13 14 15 16 17 18 19 20 21 22 23 24 25 26 27 28 29 30 31 32 33 34 35 36 37 38 39 40 41 42 43 44 45 46 47 48 49 50
048
ASUS44 KLIX 290201
RWRLA
LOUISIANA WEATHER ROUNDUP
NATIONAL WEATHER SERVICE NEW ORLEANS LA
900 PM CDT MON JUL 28 2014

NOTE: "FAIR" INDICATES FEW OR NO CLOUDS BELOW 12,000 FEET WITH NO
      SIGNIFICANT WEATHER AND/OR OBSTRUCTIONS TO VISIBILITY.
      SKY/WX - SKY CONDITION AND SIGNIFICANT WEATHER.
      TMP - AIR TEMPERATURE.    DP   - DEWPOINT TEMPERATURE.
      RH  - RELATIVE HUMIDITY.  PRES - PRESSURE.
      HX  - HEAT INDEX.         WCI  - WIND CHILL INDEX.

*  THESE STATIONS ARE NOT NWS OR FAA STATIONS AND ARE NOT UNDER
   NWS QUALITY CONTROL.

LAZ040-048-061>063-065-066-069-290300-
SOUTHEAST LOUISIANA

CITY           SKY/WX    TMP DP  RH WIND       PRES   REMARKS
N.O. AUDUBON     N/A     88  76  67 MISG        N/A  HX  98
N.O. INTL ARPT CLOUDY    84  75  74 W7        29.99R
N.O. LAKEFRONT PTCLDY    88  78  72 W16       29.99R HX 101
N.O. DOWNTOWN* FAIR      90  72  55 W5        30.00R HX  96
SLIDELL        TSTM      80  74  81 CALM      30.00R
BATON ROUGE    CLOUDY    82  74  76 NW8       30.02R
BOOTHVILLE     PTCLDY    86  80  82 W6        30.00R HX 101
BELLE CHASSE   MOCLDY    85  74  69 W5        29.99R
BOGALUSA*      FAIR      81  73  76 NW5       30.01R
GALLIANO*      NOT AVBL
NEW ROADS*     LGT RAIN  76  74  91 CALM      30.04R
GONZALES*      FAIR      83  81  91 W3        30.00R HX  97
HAMMOND*       MOCLDY    84  75  74 NW5       30.02R
HOUMA*         CLEAR     83  76  79 CALM      30.01R
PORT FOURCHON* PTCLDY    86  79  79 W13       30.02R HX  99

$$

LAZ041-044-053-054-290300-
SOUTHWEST LOUISIANA

CITY           SKY/WX    TMP DP  RH WIND       PRES   REMARKS
LAKE CHARLES   MOCLDY    86  74  67 NW3       30.03R
LAFAYETTE      NOT AVBL
PATTERSON      MOCLDY    82  79  89 W7        30.06R
SALT POINT       N/A     88  80  77 W8        30.02R HX 104
NEW IBERIA     CLOUDY    82  69  64 NE24G32   30.02R
CHENAULT AIRPK PTCLDY    88  73  62 NW5       30.04  HX  96

$$

LAZ027-028-290300-
CENTRAL LOUISIANA

CITY           SKY/WX    TMP DP  RH WIND       PRES   REMARKS
FORT POLK      TSTM      77  73  88 NW9G20    30.06R FOG
ALEXANDRIA INT CLOUDY    80  74  81 CALM      30.02R
ALEXANDRIA     CLOUDY    78  74  87 CALM      30.04R

$$

LAZ001-002-290300-
NORTHWEST LOUISIANA

CITY           SKY/WX    TMP DP  RH WIND       PRES   REMARKS
SHREVEPORT     CLOUDY    81  73  76 CALM      30.04F
BARKSDALE AFB  CLOUDY    80  69  70 NE3       30.05F
DTN SHREVEPORT CLOUDY    82  69  64 CALM      30.04F

$$

LAZ014-016-290300-
NORTHEAST LOUISIANA

CITY           SKY/WX    TMP DP  RH WIND       PRES   REMARKS
MONROE         PTCLDY    81  69  67 N5        30.04S
TALLULAH       PTCLDY    77  68  73 N5        30.03S

$$




USA.gov is the U.S. government's official web portal to all federal, state and local government web resources and services.